Retour au catalogue

STARLINK-36755

ActifCommunicationsSSO
NORAD 67726·PAYLOAD·🇺🇸 United States

Lancé Feb 11, 2026 depuis Vandenberg Space Force Base

Loading…

Prochains Passages (prochaines 24 heures)

TLE

FraisSource: CelesTrak SupGP

Époque: Sep 14, 2026, 15:54 UTC

1 67726C 26026F   26257.66298611  .00005331  00000+0  16547-3 0  2579
2 67726  97.2850 309.5344 0001279  94.9053 254.4558 15.33438425    10

Suivez STARLINK-36755 en temps réel avec AllMySat

Download on the App Store